Overview Statistics Trail Chart Weather Telemetry Raw packets
 

This is the latest recevied weather packets stored in our database for station/object YO6LRV-3. If no packets are shown the sender has not sent any weather packets the latest 10 day(s).

<< 16 17 18 19 20 21 22 >>
Time Temp. Humidity Pressure Rain* Wind** Luminosity Snow
1787868721 15.56° C 100% 1020.8 hPa - - - -
1787867821 15.56° C 100% 1021.2 hPa - - - -
1787866921 16.11° C 100% 1021.2 hPa - - - -
1787866021 16.11° C 100% 1021.2 hPa - - - -
1787865120 16.11° C 100% 1021.2 hPa - - - -
1787864220 16.11° C 100% 1021.3 hPa - - - -
1787863321 16.11° C 100% 1021.2 hPa - - - -
1787862427 16.67° C 100% 1021 hPa - - - -
1787861520 16.67° C 100% 1020.8 hPa - - - -
1787860620 16.67° C 100% 1020.7 hPa - - - -
1787859720 16.67° C 99% 1020.5 hPa - - - -
1787858820 17.22° C 99% 1020.4 hPa - - - -
1787857929 17.22° C 99% 1020.4 hPa - - - -
1787857022 17.78° C 99% 1020.4 hPa - - - -
1787856122 17.78° C 97% 1020.4 hPa - - - -
1787855222 18.33° C 95% 1020.4 hPa - - - -
1787854322 18.33° C 93% 1020.2 hPa - - - -
1787853428 18.33° C 93% 1020.1 hPa - - - -
1787852521 18.89° C 92% 1019.8 hPa - - - -
1787851621 18.89° C 92% 1019.9 hPa - - - -
1787850721 18.89° C 92% 1019.8 hPa - - - -
1787849821 19.44° C 90% 1019.5 hPa - - - -
1787848921 20° C 87% 1019.3 hPa - - - -
1787848021 20° C 85% 1019.3 hPa - - - -
1787847120 20.56° C 84% 1019.1 hPa - - - -

* Rain since midnight (hover to see other rain measurements)
** Current wind speed in m/s (hover to see current wind gust speed)